DW6885 Weather Reports


Display with metric or nautical units.
time (UTC)temp
F
wind
direction
speed
MPH
gust
MPH
rain 1hr
in
rain 24hr
in
rain mn
in
humidity
%
barometer
mb
20170527002712 53 338 1.0 3.0 0.00 1.74 1.73 97 1004.6
20170527001510 54 344 0.0 2.0 0.00 1.74 1.73 96 1004.4
20170527001210 53 344 0.0 2.0 0.00 1.74 1.73 96 1004.3
20170527000010 54 53 1.0 2.0 0.00 1.74 1.73 96 1004.3
20170526235415 54 9 0.0 1.0 0.00 1.75 1.73 96 1004.3
20170526235012 54 9 0.0 6.0 0.00 1.74 1.73 96 1004.2
20170526233708 54 182 0.0 5.0 0.00 1.75 1.73 95 1004.1
20170526233509 55 337 0.0 3.0 0.00 1.75 1.73 95 1004.0
20170526233012 55 347 1.0 3.0 0.00 1.75 1.73 95 1003.9
20170526232014 55 340 0.0 2.0 0.00 1.75 1.73 95 1003.8
20170526230509 55 346 0.0 2.0 0.00 1.75 1.73 95 1003.4
20170526230421 55 346 0.0 2.0 0.00 1.75 1.73 95 1003.4
20170526225509 55 355 0.0 3.0 0.00 1.75 1.73 95 1003.3
20170526224711 55 355 0.0 4.0 0.00 1.76 1.73 94 1003.2
20170526224012 56 42 1.0 3.0 0.00 1.75 1.73 95 1003.1
20170526223014 55 169 0.0 3.0 0.00 1.76 1.73 95 1002.9
20170526223011 56 169 0.0 3.0 0.00 1.75 1.73 95 1002.8
20170526222509 56 43 0.0 3.0 0.00 1.76 1.73 95 1002.7
20170526222015 56 68 2.0 3.0 0.00 1.76 1.73 95 1002.6
20170526221509 56 222 0.0 2.0 0.00 1.76 1.73 95 1002.5
20170526221411 55 222 0.0 2.0 0.00 1.76 1.73 95 1002.5
20170526221011 56 348 0.0 6.0 0.00 1.76 1.73 95 1002.4
20170526220010 56 348 1.0 5.0 0.00 1.76 1.73 96 1002.3
20170526215621 55 261 1.0 5.0 0.00 1.78 1.73 95 1002.2
20170526214011 56 26 1.0 3.0 0.00 1.77 1.73 96 1002.0
20170526213908 55 284 0.0 5.0 0.00 1.78 1.73 96 1002.0
20170526213509 55 342 1.0 6.0 0.00 1.77 1.73 96 1002.0
20170526213011 55 303 2.0 6.0 0.00 1.77 1.73 96 1001.9
20170526212410 55 42 0.0 3.0 0.01 1.78 1.73 96 1001.8
20170526210709 55 23 0.0 4.0 0.01 1.78 1.73 97 1001.6
20170526210509 55 23 1.0 3.0 0.01 1.78 1.73 97 1001.5
20170526210009 55 23 0.0 6.0 0.01 1.78 1.73 97 1001.5
20170526205012 55 150 0.0 3.0 0.01 1.78 1.73 97 1001.3
20170526204911 55 150 0.0 2.0 0.01 1.79 1.73 97 1001.3
20170526203510 55 285 1.0 5.0 0.01 1.78 1.73 97 1001.5
20170526203420 54 90 0.0 5.0 0.01 1.79 1.73 97 1001.5
20170526202011 54 63 0.0 1.0 0.00 1.78 1.72 97 1001.4
20170526201711 54 63 0.0 5.0 0.00 1.78 1.72 97 1001.4
20170526201509 54 63 0.0 3.0 0.00 1.78 1.72 97 1001.4
20170526201011 55 202 1.0 3.0 0.00 1.78 1.72 97 1001.4
20170526200509 54 228 0.0 5.0 0.00 1.78 1.72 97 1001.3
20170526200009 54 166 1.0 5.0 0.00 1.78 1.72 97 1001.3
20170526195916 54 5 0.0 5.0 0.00 1.81 1.72 97 1001.3
20170526195509 54 25 1.0 5.0 0.00 1.78 1.72 97 1001.3
20170526195011 54 6 0.0 3.0 0.00 1.78 1.72 96 1001.2
20170526194509 54 28 0.0 3.0 0.00 1.79 1.72 97 1001.3
20170526194408 54 333 0.0 4.0 0.00 1.81 1.72 97 1001.3
20170526193509 54 319 0.0 3.0 0.00 1.80 1.72 97 1001.2
20170526192712 54 252 0.0 2.0 0.00 1.81 1.72 98 1001.2
20170526192509 54 309 0.0 2.0 0.01 1.80 1.72 98 1001.2
20170526192011 54 286 0.0 2.0 0.01 1.80 1.72 98 1001.2
20170526191011 54 88 0.0 3.0 0.01 1.80 1.72 98 1001.2
20170526191008 53 88 0.0 2.0 0.01 1.81 1.72 98 1001.2
20170526190010 53 225 2.0 3.0 0.02 1.81 1.72 98 1001.1
20170526185509 53 215 1.0 2.0 0.03 1.81 1.72 98 1001.1
20170526185411 53 215 1.0 3.0 0.03 1.83 1.72 98 1001.1
20170526185011 53 128 0.0 1.0 0.03 1.81 1.72 98 1001.0
20170526184509 53 128 0.0 0.0 0.04 1.82 1.72 98 1001.0
20170526183708 52 128 0.0 2.0 0.04 1.83 1.72 98 1001.0
20170526183510 52 128 0.0 1.0 0.04 1.82 1.72 98 1001.0
20170526183011 52 80 0.0 2.0 0.04 1.82 1.72 98 1001.0
20170526182509 52 186 0.0 2.0 0.03 1.81 1.71 98 1000.9
20170526182012 52 186 0.0 1.0 0.04 1.81 1.71 98 1000.9
20170526181908 51 186 0.0 1.0 0.04 1.82 1.71 98 1000.8
20170526181510 52 186 0.0 1.0 0.04 1.81 1.71 98 1000.7
20170526180510 52 186 0.0 3.0 0.03 1.81 1.70 98 1000.6
20170526180409 51 186 0.0 4.0 0.03 1.81 1.70 98 1000.6
20170526180010 52 296 0.0 1.0 0.04 1.81 1.70 98 1000.5
20170526174709 51 296 0.0 2.0 0.04 1.81 1.69 98 1000.5
20170526174011 52 296 0.0 1.0 0.03 1.79 1.68 98 1000.4
20170526172914 51 296 0.0 0.0 0.03 1.80 1.68 98 1000.3
20170526172509 52 296 0.0 0.0 0.03 1.80 1.68 98 1000.3
20170526172010 52 296 0.0 0.0 0.02 1.79 1.67 98 1000.2
20170526171509 52 296 0.0 2.0 0.02 1.79 1.67 97 1000.2
20170526171412 51 296 0.0 2.0 0.02 1.79 1.67 97 1000.2
20170526170510 52 296 0.0 1.0 0.02 1.79 1.67 98 1000.2
20170526165712 51 296 0.0 2.0 0.01 1.78 1.66 98 1000.3
20170526165509 52 296 0.0 1.0 0.01 1.78 1.66 98 1000.3
20170526164509 51 296 0.0 3.0 0.00 1.77 1.65 97 1000.2
20170526164011 52 51 0.0 3.0 0.00 1.77 1.65 97 1000.1
20170526163912 51 63 0.0 2.0 0.00 1.77 1.65 97 1000.1
20170526163011 51 43 2.0 3.0 0.00 1.77 1.65 97 1000.0
20170526162509 51 325 1.0 3.0 0.00 1.77 1.65 97 1000.0
20170526162407 51 325 0.0 4.0 0.00 1.77 1.65 97 1000.0
20170526161011 51 306 1.0 3.0 0.00 1.77 1.65 98 999.9
20170526160710 51 264 0.0 3.0 0.00 1.77 1.65 98 999.8
20170526160010 51 269 1.0 3.0 0.00 1.77 1.65 98 999.7
20170526155509 51 42 0.0 3.0 0.00 1.77 1.65 98 999.7
20170526154913 51 26 0.0 3.0 0.00 1.78 1.65 98 999.7
20170526154509 51 71 0.0 3.0 0.01 1.77 1.65 99 999.5
20170526153515 50 51 0.0 3.0 0.01 1.78 1.65 99 999.5
20170526153011 51 265 0.0 2.0 0.01 1.77 1.65 99 999.5
20170526152509 50 303 0.0 3.0 0.01 1.77 1.65 99 999.4
20170526151716 50 303 0.0 3.0 0.01 1.78 1.65 99 999.4
20170526151011 50 304 0.0 3.0 0.01 1.77 1.65 99 999.5
20170526150509 50 43 0.0 3.0 0.01 1.77 1.65 99 999.5
20170526150010 50 322 1.0 3.0 0.01 1.78 1.65 99 999.5
20170526145908 49 322 1.0 5.0 0.01 1.79 1.65 99 999.5
20170526144509 49 314 0.0 3.0 0.02 1.77 1.64 99 999.5
20170526144316 49 314 0.0 3.0 0.02 1.78 1.64 99 999.5
20170526143509 49 338 0.0 3.0 0.02 1.78 1.64 99 999.5
20170526143011 49 311 1.0 3.0 0.03 1.78 1.64 99 999.5
20170526142713 49 345 0.0 3.0 0.03 1.78 1.64 99 999.5
20170526142011 49 261 1.0 2.0 0.04 1.78 1.64 99 999.5
20170526140909 48 10 1.0 3.0 0.05 1.78 1.64 99 999.6
20170526135509 49 341 1.0 3.0 0.05 1.78 1.63 99 999.6
20170526135412 48 302 0.0 3.0 0.05 1.78 1.63 99 999.6
20170526134509 49 267 2.0 3.0 0.05 1.77 1.62 99 999.5
20170526134011 49 49 1.0 3.0 0.05 1.77 1.62 99 999.5
20170526133713 48 233 0.0 3.0 0.05 1.77 1.62 99 999.5
20170526133510 48 233 1.0 3.0 0.06 1.77 1.62 99 999.5
20170526131908 48 284 0.0 3.0 0.04 1.75 1.60 99 999.5
20170526131510 48 284 1.0 3.0 0.04 1.75 1.60 99 999.4
20170526130413 47 328 0.0 2.0 0.03 1.73 1.58 99 999.5
20170526130010 48 328 0.0 1.0 0.04 1.73 1.58 99 999.4
20170526124716 47 328 0.0 0.0 0.03 1.72 1.57 99 999.4
20170526124509 48 328 0.0 1.0 0.03 1.72 1.57 99 999.3
20170526124011 48 328 0.0 1.0 0.03 1.72 1.57 99 999.2
20170526123011 48 22 1.0 1.0 0.03 1.71 1.56 99 999.1
20170526123009 47 22 0.0 1.0 0.03 1.71 1.56 99 999.1
20170526122510 48 22 0.0 0.0 0.03 1.71 1.56 99 999.1
20170526121509 47 22 0.0 1.0 0.04 1.71 1.56 99 998.9
20170526121215 47 22 0.0 2.0 0.05 1.71 1.56 99 998.9
20170526121011 47 269 0.0 3.0 0.05 1.71 1.56 99 998.9
20170526115709 47 310 0.0 2.0 0.05 1.69 1.54 99 998.8
20170526115512 47 310 0.0 1.0 0.05 1.69 1.54 99 998.9
20170526114509 47 310 0.0 2.0 0.06 1.69 1.54 99 998.9
20170526114011 47 310 0.0 0.0 0.07 1.69 1.54 99 998.9
20170526113908 47 310 0.0 0.0 0.07 1.69 1.54 99 998.9
20170526113011 47 310 0.0 2.0 0.07 1.68 1.53 99 998.9
20170526112209 47 310 0.0 0.0 0.07 1.67 1.52 99 998.9
20170526112011 47 310 0.0 0.0 0.07 1.67 1.52 99 998.9
20170526111510 47 310 0.0 0.0 0.08 1.67 1.52 99 998.8
20170526111011 47 310 0.0 3.0 0.07 1.66 1.51 99 998.8
20170526110910 46 310 0.0 4.0 0.07 1.66 1.51 99 998.8
20170526105510 47 288 0.0 2.0 0.06 1.64 1.49 99 998.8
20170526105011 47 288 1.0 2.0 0.05 1.63 1.48 99 998.9
20170526104908 46 288 0.0 5.0 0.05 1.63 1.48 99 998.8
20170526104509 47 265 0.0 2.0 0.06 1.63 1.48 99 998.9
20170526104011 46 263 0.0 2.0 0.05 1.62 1.47 99 998.8
20170526103510 46 263 0.0 3.0 0.04 1.61 1.46 99 998.6
20170526103213 46 263 0.0 7.0 0.04 1.61 1.46 99 998.6
20170526102510 46 248 0.0 3.0 0.04 1.61 1.46 99 998.3
20170526102012 46 118 1.0 3.0 0.03 1.60 1.45 99 998.3
20170526101710 46 213 1.0 4.0 0.03 1.60 1.45 99 998.2
20170526101510 46 115 0.0 5.0 0.02 1.59 1.44 99 998.1
20170526101011 46 55 1.0 5.0 0.02 1.59 1.44 99 998.1
20170526100509 46 31 1.0 12.0 0.02 1.59 1.44 99 998.2
20170526100009 46 124 2.0 12.0 0.01 1.58 1.43 99 998.0
20170526095910 46 129 2.0 11.0 0.01 1.58 1.43 99 998.0
20170526095509 46 214 0.0 5.0 0.01 1.58 1.43 99 998.1
20170526095011 46 86 0.0 5.0 0.02 1.58 1.43 99 998.1
20170526094509 46 148 1.0 3.0 0.01 1.57 1.42 99 998.1
20170526094208 46 126 0.0 4.0 0.01 1.57 1.42 99 998.1
20170526094011 46 292 2.0 5.0 0.01 1.57 1.42 99 998.1
20170526093010 46 56 2.0 5.0 0.03 1.57 1.42 99 997.8
20170526092515 46 187 1.0 4.0 0.03 1.57 1.42 99 997.7
20170526092011 46 57 0.0 3.0 0.04 1.57 1.42 99 997.7
20170526091509 46 252 0.0 3.0 0.05 1.57 1.42 99 997.8
20170526091011 46 144 1.0 5.0 0.06 1.57 1.42 99 997.8
20170526090918 46 144 0.0 5.0 0.06 1.57 1.42 99 997.8
20170526090509 46 248 1.0 5.0 0.08 1.57 1.42 99 997.8
20170526090010 46 247 0.0 3.0 0.08 1.57 1.42 99 997.7
20170526085210 46 184 0.0 8.0 0.10 1.57 1.42 99 997.8
20170526085011 46 193 1.0 8.0 0.09 1.56 1.41 99 997.8
20170526084509 46 22 1.0 8.0 0.10 1.56 1.41 99 997.9
20170526084011 46 352 2.0 8.0 0.11 1.56 1.41 99 997.9
20170526083520 46 111 0.0 5.0 0.11 1.55 1.40 99 998.0
20170526083510 46 111 0.0 6.0 0.12 1.55 1.40 99 998.0
20170526082011 46 229 1.0 6.0 0.11 1.53 1.38 99 998.3
20170526081911 46 229 1.0 6.0 0.10 1.52 1.37 99 998.3
20170526081509 47 304 1.0 6.0 0.11 1.52 1.37 99 998.3
20170526081011 47 188 1.0 3.0 0.10 1.51 1.36 99 998.4
20170526080213 46 58 0.0 6.0 0.10 1.49 1.34 99 998.5
20170526075510 47 239 0.0 6.0 0.10 1.47 1.32 99 998.5
20170526075011 47 319 0.0 2.0 0.11 1.47 1.32 99 998.5
20170526074514 46 244 0.0 3.0 0.11 1.46 1.31 99 998.6
20170526074510 47 244 0.0 3.0 0.12 1.46 1.31 99 998.6
20170526074011 47 75 0.0 3.0 0.13 1.45 1.30 99 998.8
20170526073509 47 72 1.0 3.0 0.13 1.43 1.28 99 998.9
20170526072907 46 168 0.0 4.0 0.15 1.43 1.28 99 999.4
20170526072011 47 94 3.0 9.0 0.19 1.42 1.27 99 999.3
20170526071509 47 69 1.0 9.0 0.28 1.41 1.26 99 999.2
20170526071218 46 160 1.0 9.0 0.32 1.41 1.26 99 999.1
20170526071011 47 328 2.0 9.0 0.36 1.41 1.26 99 999.2
20170526070009 47 181 2.0 5.0 0.40 1.39 1.24 99 999.6
20170526065514 46 9 1.0 5.0 0.42 1.38 1.23 99 999.5
20170526065509 47 18 2.0 5.0 0.43 1.37 1.22 99 999.4
20170526065011 47 268 1.0 7.0 0.45 1.36 1.21 99 999.6
20170526064012 47 323 0.0 3.0 0.49 1.32 1.17 99 1000.7
20170526063909 46 323 0.0 3.0 0.49 1.32 1.17 99 1000.7
20170526063011 47 323 0.0 3.0 0.58 1.28 1.13 99 1001.2
20170526062509 47 323 2.0 3.0 0.63 1.26 1.11 99 1001.7
20170526062222 46 265 0.0 5.0 0.65 1.25 1.10 99 1002.1
20170526062012 47 249 2.0 3.0 0.67 1.23 1.08 99 1002.2
20170526061509 47 27 1.0 3.0 0.62 1.13 0.98 99 1001.8
20170526060519 46 27 0.0 8.0 0.56 1.01 0.86 99 1001.9
20170526060509 47 27 0.0 3.0 0.56 1.01 0.86 99 1001.8
20170526060009 47 292 1.0 3.0 0.59 0.99 0.84 99 1001.4
20170526055011 47 106 0.0 3.0 0.66 0.91 0.76 99 1001.9
20170526054911 46 106 0.0 4.0 0.66 0.91 0.76 99 1001.9
20170526054509 47 337 0.0 3.0 0.64 0.87 0.72 99 1001.6
20170526054011 47 131 2.0 5.0 0.65 0.83 0.68 99 1001.6
20170526053509 47 342 2.0 5.0 0.59 0.75 0.60 99 1000.7
20170526053212 46 342 1.0 5.0 0.55 0.71 0.56 99 1001.4
20170526053012 47 122 1.0 3.0 0.54 0.70 0.55 99 1002.0
20170526052509 47 78 1.0 3.0 0.48 0.63 0.48 99 1001.2
20170526052011 47 132 0.0 3.0 0.41 0.56 0.41 99 1001.7
20170526051517 46 132 2.0 4.0 0.37 0.52 0.37 99 1001.2
20170526051012 47 221 0.0 1.0 0.32 0.47 0.32 99 1001.7
20170526050009 47 221 0.0 3.0 0.25 0.40 0.25 99 1002.2
20170526045911 46 221 0.0 4.0 0.24 0.39 0.24 99 1002.2
20170526045012 47 154 2.0 3.0 0.10 0.25 0.10 99 1002.2
20170526044209 47 337 0.0 4.0 0.06 0.21 0.06 99 1001.6
20170526044011 47 262 0.0 3.0 0.03 0.18 0.03 99 1001.5
20170526043509 47 267 0.0 3.0 0.01 0.16 0.01 99 1001.5
20170526043012 47 144 1.0 3.0 0.01 0.16 0.01 99 1001.6
20170526042513 47 71 1.0 8.0 0.00 0.15 0.00 99 1001.6
20170526042011 47 153 2.0 3.0 0.00 0.15 0.00 99 1001.8
20170526041509 47 120 1.0 3.0 0.00 0.15 0.00 99 1001.9
20170526041011 47 316 1.0 3.0 0.00 0.15 0.00 99 1002.1
20170526040815 47 9 1.0 5.0 0.00 0.15 0.00 99 1002.1
20170526040509 47 252 0.0 7.0 0.00 0.15 0.00 99 1002.0
20170526040009 47 259 1.0 7.0 0.00 0.15 0.00 99 1002.3
20170526035509 47 67 0.0 6.0 0.00 0.15 0.15 99 1002.6
20170526035212 47 33 0.0 6.0 0.00 0.15 0.15 99 1002.7
20170526035010 47 33 0.0 3.0 0.00 0.15 0.15 99 1002.8
20170526034509 47 342 2.0 12.0 0.00 0.15 0.15 99 1003.0
20170526034010 47 336 1.0 12.0 0.00 0.15 0.15 99 1002.8
20170526033515 47 58 2.0 11.0 0.00 0.15 0.15 99 1002.8
20170526033509 47 9 2.0 12.0 0.00 0.15 0.15 99 1002.9
20170526033011 47 311 0.0 3.0 0.00 0.15 0.15 99 1002.9
20170526031906 47 283 0.0 5.0 0.00 0.15 0.15 99 1003.2
20170526031508 47 173 0.0 3.0 0.00 0.15 0.15 99 1003.3
20170526031011 47 123 0.0 3.0 0.00 0.15 0.15 99 1003.2
20170526030509 47 306 0.0 3.0 0.00 0.15 0.15 99 1003.3
20170526030209 47 329 0.0 7.0 0.00 0.15 0.15 99 1003.2
20170526030008 47 313 1.0 3.0 0.00 0.15 0.15 99 1003.2
20170526025010 47 354 2.0 5.0 0.00 0.15 0.15 99 1003.3
20170526024515 47 31 0.0 8.0 0.00 0.15 0.15 98 1003.8
20170526024010 47 340 2.0 8.0 0.00 0.15 0.15 98 1003.9
20170526022909 47 77 0.0 4.0 0.00 0.15 0.15 98 1004.2
20170526022508 48 37 2.0 3.0 0.00 0.15 0.15 98 1004.1
20170526022011 48 300 0.0 3.0 0.00 0.15 0.15 98 1004.1
20170526021210 47 294 2.0 4.0 0.00 0.15 0.15 98 1004.1
20170526020508 48 78 1.0 6.0 0.01 0.15 0.15 98 1004.3
20170526015515 47 5 0.0 3.0 0.01 0.15 0.15 99 1004.5
20170526015508 48 5 1.0 3.0 0.01 0.15 0.15 99 1004.6
20170526015011 48 5 0.0 9.0 0.01 0.15 0.15 98 1004.5
20170526013908 47 80 0.0 5.0 0.01 0.15 0.15 98 1004.4
20170526013509 48 81 1.0 5.0 0.01 0.15 0.15 98 1004.5
20170526013011 48 65 1.0 3.0 0.01 0.15 0.15 98 1004.6
20170526012209 48 77 1.0 6.0 0.01 0.15 0.15 98 1004.8
20170526011509 48 98 2.0 8.0 0.01 0.15 0.15 98 1004.8
20170526011011 48 109 0.0 8.0 0.01 0.15 0.15 98 1004.9
20170526010523 48 69 1.0 8.0 0.00 0.14 0.14 98 1004.8
20170526010508 48 68 1.0 8.0 0.00 0.14 0.14 98 1004.8
20170526005509 48 117 0.0 5.0 0.00 0.14 0.14 98 1004.7
20170526005011 48 34 2.0 8.0 0.00 0.14 0.14 98 1004.5
20170526004914 48 319 1.0 8.0 0.00 0.14 0.14 98 1004.5
20170526004508 48 1 2.0 8.0 0.01 0.14 0.14 98 1004.4
20170526004011 48 7 1.0 3.0 0.01 0.14 0.14 98 1004.6
20170526003508 48 42 0.0 3.0 0.01 0.14 0.14 98 1004.5